Tracking 32932 objects as of 15-Jan-2026
HD Live streaming from Space Station
objects crossing your sky now

STARLINK-5463

Track STARLINK-5463 now!
10-day predictions
STARLINK-5463 is classified as:


NORAD ID: 55673
Int'l Code: 2023-021AX
Perigee: 577.1 km
Apogee: 581.2 km
Inclination: 70.0 °
Period: 96.1 minutes
Semi major axis: 6950 km
RCS: Unknown
Launch date: February 17, 2023
Source: United States (US)
Launch site: AIR FORCE WESTERN TEST RANGE (AFWTR)
Your satellite tracking list
Your tracking list is empty




NASA's NSSDC Master Catalog

Two Line Element Set (TLE):
1 55673U 23021AX  26014.19250329  .00000252  00000-0  28918-4 0  9999
2 55673  70.0000 301.7698 0002956 268.8335  91.2486 14.98330958161127
Source of the keplerian elements: AFSPC